Regional Weather Roundup
Issued by NWS

Home | Current Version | Previous Version | Text Only | Print | Product List | Glossary Off
Versions: 1 2 3 4 5 6 7 8 9 10 11 12 13 14 15 16 17 18 19 20 21 22 23 24 25 26 27

000
ASUS45 KBOU 271007
RWRCO

WEATHER ROUNDUP FOR COLORADO
NATIONAL WEATHER SERVICE DENVER/BOULDER CO
400 AM MDT FRI MAY 27 2016

NOTE: "FAIR" INDICATES FEW OR NO CLOUDS BELOW 12000 FEET WITH NO
SIGNIFICANT WEATHER AND/OR OBSTRUCTIONS TO VISIBILITY.

COZ001>005-013-030-031-271100-
...NORTHWEST COLORADO...

CITY           SKY/WX    TMP DP  RH WIND       PRES   REMARKS
CRAIG          CLOUDY    43  38  82 S5        29.97F
HAYDEN         FAIR      39  32  75 W5        29.97F
MEEKER         CLOUDY    45  40  82 CALM      29.98S
MOUNT WERNER   NOT AVBL
STEAMBOAT SPGS MOCLDY    39  36  87 NE3       29.98S
WALDEN         CLOUDY    36  32  87 N3        30.00S
$$

COZ006>008-011-271100-
...WEST CENTRAL VALLEYS...

CITY           SKY/WX    TMP DP  RH WIND       PRES   REMARKS
GRAND JUNCTION CLOUDY    50  40  68 CALM      29.92S
MONTROSE       CLOUDY    46  38  73 S6        29.96F
EAGLE          FAIR      41  41 100 E5        30.00S
RIFLE          CLOUDY    47  40  76 CALM      29.94S
DELTA          FAIR      50  39  66 CALM      29.94S
NUCLA          FAIR      41  34  75 E7        30.00S
$$

COZ017>023-064>068-271100-
...SOUTHWEST COLORADO...

CITY           SKY/WX    TMP DP  RH WIND       PRES   REMARKS
DURANGO        MOCLDY    45  30  55 SW3       29.92F
CORTEZ         FAIR      37  32  82 E6        29.95F
PAGOSA SPRINGS CLOUDY    40  36  84 CALM      29.97S
TELLURIDE      CLOUDY    34  34 100 CALM      30.05F
WOLF CREEK PAS   N/A     27  25  93 N9G16     30.08S WCI  17
$$

COZ009-010-012-014-032>034-037-058>063-271100-
...CENTRAL COLORADO...

CITY           SKY/WX    TMP DP  RH WIND       PRES   REMARKS
ASPEN          CLOUDY    40  36  86 NW5       29.98F
BUENA VISTA    FAIR      38  36  92 CALM      29.93F
COPPER MTN     NOT AVBL
BERTHOUD PASS  HAZE      23  14  68 N15G31    30.05F VSB<1/4 WCI  10
COTTONWOOD PAS CLOUDY    37  30  75 W10G16    29.98F
GUNNISON       FAIR      39  34  81 NW5       29.99F
KREMMLING      FAIR      41  34  75 SW7       29.97F
LEADVILLE      CLOUDY    32  29  88 NW5       29.99F WCI  27
MONARCH PASS   FOG       28  27  93 W10       30.15S VSB<1/4 WCI  19
SALIDA         CLOUDY    42  40  93 CALM      30.00F
SUNLIGHT       FOG       32  32 100 NW7       30.11S VSB 1/4 WCI  26
WILKERSON PASS LGT SNOW  30  28  93 N10G18    30.02S WCI  21
$$

COZ069>075-271100-
...SAN LUIS VALLEY/SANGRE DE CRISTO MOUNTAINS...

CITY           SKY/WX    TMP DP  RH WIND       PRES   REMARKS
ALAMOSA        LGT RAIN  36  35  96 W13       29.94F
LA VETA PASS   SNOW      30  30 100 SW9G16    29.95F VSB 1/2 WCI  22
SAGUACHE       MOCLDY    39  36  87 NW9       29.94F
$$

COZ035-036-038>040-271100-
...NORTHERN COLORADO FRONT RANGE...

CITY           SKY/WX    TMP DP  RH WIND       PRES   REMARKS
DENVER INTL AP LGT RAIN  47  44  90 W6        29.85F FOG
DMNS CITY PARK   N/A     47  45  95 E12       29.86S
AURORA         LGT RAIN  45  45  99 N2        29.87F
FRONT RANGE AP NOT AVBL
ERIE MUNI ARPT CLOUDY    48  47  95 CALM      29.86F FOG
BOULDER MUN AP NOT AVBL
CENTENNIAL     LGT RAIN  45  42  89 CALM      29.87F
BROOMFIELD     LGT RAIN  46  45  93 SW3       29.87F
FORT COLLINS   FAIR      48  43  81 N12       29.87S
LONGMONT       MOCLDY    49  45  85 CALM      29.87F
$$

COZ041-046-047-076>085-087-088-271100-
...PIKES PEAK/PALMER DIVIDE AND SOUTHERN FOOTHILLS...

CITY           SKY/WX    TMP DP  RH WIND       PRES   REMARKS
COLO. SPRINGS  LGT RAIN  43  40  89 N17       29.88S FOG
A. F. ACADEMY  RAIN      39  39 100 NW16      29.88R
SCHRIEVER AFB  NOT AVBL
ELLICOTT       LGT RAIN N/A N/A N/A N20G25    29.83F
FALCON         LGT SNOW  37  35  93 N12G20    29.87F
FORT CARSON    RAIN      45  43  93 N16       29.86S
LIMON          RAIN      44  42  93 N18G30    29.79F
MONUMENT HILL  RAIN      36  34  93 N14G24    29.90F
TRINIDAD       LGT RAIN  44  40  85 W9        29.86F
$$

COZ042>045-048>051-090-091-271100-
...NORTHEAST COLORADO...

CITY           SKY/WX    TMP DP  RH WIND       PRES   REMARKS
GREELEY ARPT   FAIR      50  45  81 NW10      29.84F
AKRON          RAIN      48  46  93 NW18      29.76F FOG
BURLINGTON     CLOUDY    50  46  86 W5        29.72F
WRAY           CLOUDY    52  50  93 E12       29.74S
STERLING       HVY RAIN  50  50 100 NW9       29.77F
HOLYOKE        NOT AVBL
FORT MORGAN    LGT RAIN  48  46  93 W9        29.81F
$$

COZ086-089-092>099-271100-
...SOUTHEAST COLORADO...

CITY           SKY/WX    TMP DP  RH WIND       PRES   REMARKS
PUEBLO         RAIN      49  46  90 W7        29.83F FOG
LA JUNTA       RAIN      49  45  86 NW21      29.79S FOG
LAMAR          CLOUDY    49  43  80 W12       29.73F
SPRINGFIELD      N/A     43  38  82 NW13      29.76S
$$




USA.gov is the U.S. government's official web portal to all federal, state and local government web resources and services.